Location: Asheville, NC
(35.6000°N, 82.5500°W)
Time: 20:16:37

YUBILEINY - Pass Details

Date: 18 March 2018
Orbit: 1478 x 1509 km, 82.5° (Epoch: 19 March)

Event Time Altitude Azimuth Distance (km) Brightness Sun altitude
Rises 04:34:27 0° 2° (N) 4,615 ? -36.4°
Reaches altitude 10° 04:37:50 10° 13° (NNE) 3,636 ? -35.8°
Maximum altitude 04:45:21 31° 73° (ENE) 2,384 ? -34.5°
Drops below altitude 10° 04:52:50 10° 132° (SE) 3,642 ? -33.1°
Sets 04:56:11 0° 142° (SE) 4,624 ? -32.5°
